Flag for Canada Weather past 2 weeks in Trois-Rivieres, Quebec, Canada

Now
10 °F

Frigid.


Feels Like: -1 °F
Forecast: -5 / 17 °F
Wind: 7 mph from Northwest

Location: Trois Rivieres

Current Time: Mar 5, 2015 at 6:02:12 AM

Latest Report: Mar 5, 2015 at 5:00 AM


Visibility: N/A

Pressure: 30.06 "Hg

Humidity: 56%

Dew point: -3 °F

Location of Trois-RivieresLocation

Historic Weather in Trois-Rivieres — Graph

°F

Trois-Rivieres temperature yesterday

Maximum temperature yesterday: 33 °F (at 5:00 PM)
Minimum temperature yesterday: 21 °F (at 7:00 AM)
Average temperature yesterday: 27 °F

Past Weeks' High & Low Weather Summary

 TemperatureHumidityPressure
High33 °F (Mar 4, 5:00 PM)100% (Feb 21, 6:00 PM)30.67 "Hg (Feb 21, 6:00 PM)
Low-13 °F (Feb 26, 7:00 AM)39% (Feb 20, 3:00 PM)29.51 "Hg (Mar 4, 2:00 AM)
Average11 °F73%30.08 "Hg
* Reported Feb 18 5:00 AM — Mar 5 5:00 AM, Trois-Rivieres, Weather by CustomWeather, © 2015

Note: Actual official high and low records may vary slightly from our data, if they occured in-between our weather recording intervals... More about our weather records

Advertising

Trois-Rivieres weather history for previous 24 hours

 ConditionsComfort  
Time TempWeatherWind HumidityBarometerVisibility
5:00 AM
Thu, Mar 5
10 °FFrigid.7 mph56%30.06 "HgN/A
4:00 AM11 °FCold.10 mph55%30.01 "HgN/A
3:00 AM13 °FCold.12 mph48%29.98 "HgN/A
2:00 AM16 °FCold.10 mph56%29.94 "HgN/A
1:00 AM18 °FCold.12 mph49%29.90 "HgN/A
12:00 AM20 °FCold.9 mph62%29.83 "HgN/A
11:00 PM
Wed, Mar 4
23 °FCold.10 mph59%29.82 "HgN/A
10:00 PM28 °FChilly.10 mph52%29.76 "HgN/A
9:00 PM28 °FChilly.5 mph49%29.72 "HgN/A
8:00 PM28 °FChilly.9 mph64%29.70 "HgN/A
7:00 PM30 °FChilly.9 mph64%29.66 "HgN/A
5:00 PM33 °FChilly.21 mph67%29.63 "HgN/A
4:00 PM33 °FChilly.24 mph66%29.62 "HgN/A
3:00 PM33 °FChilly.22 mph68%29.62 "HgN/A
2:00 PM32 °FChilly.22 mph73%29.62 "HgN/A
1:00 PM32 °FChilly.22 mph69%29.64 "HgN/A
12:00 PM31 °FChilly.18 mph73%29.65 "HgN/A
11:00 AM29 °FChilly.13 mph75%29.65 "HgN/A
10:00 AM29 °FChilly.14 mph68%29.65 "HgN/A
9:00 AM26 °FChilly.8 mph88%29.65 "HgN/A
8:00 AM24 °FCold.5 mph89%29.64 "HgN/A
7:00 AM21 °FCold.6 mph93%29.62 "HgN/A
6:00 AM22 °FCold.12 mph95%29.60 "HgN/A
Weather by CustomWeather, © 2015

See weather overviewHow to use our weather pages